When you browse on this site, cookies collect data to enhance your experience and personalize the content and advertising you see.
Visit our Privacy Policy to learn more. By continuing to use the site, you agree to this use of cookies and data.
  • In Hungary
  • List of Countries
  • For 7 days
  • Water Temperature
  • Satellite Maps
  • Weather Map
  • News
  • Weather Widgets
  • user-avatar
    Login

    Hourly Weather Malszewko

    Today, 17 December, Monday

    Time Temperature Precipitation Wind Pressure Humidity
    00:00 -3°C° 0 mm 2 mps 751 mmHg 91%
    01:00 -3°C° 0 mm 2 mps 752 mmHg 92%
    02:00 -3°C° 0 mm 2 mps 751 mmHg 92%
    03:00 -4°C° 0 mm 2 mps 751 mmHg 92%
    04:00 -4°C° 0 mm 2 mps 751 mmHg 92%
    05:00 -4°C° 0 mm 2 mps 751 mmHg 92%
    06:00 -4°C° 0 mm 2 mps 751 mmHg 92%
    07:00 -4°C° 0 mm 2 mps 751 mmHg 92%
    08:00 -3°C° 0 mm 2 mps 752 mmHg 90%
    09:00 -3°C° 0 mm 2 mps 752 mmHg 89%
    10:00 -3°C° 0 mm 2 mps 752 mmHg 88%
    11:00 -3°C° 0 mm 2 mps 752 mmHg 86%
    12:00 0°C° 0 mm 1 mps 752 mmHg 85%
    13:00 0°C° 0 mm 1 mps 752 mmHg 84%
    14:00 0°C° 0 mm 1 mps 753 mmHg 86%
    15:00 -1°C° 0 mm 1 mps 753 mmHg 89%
    16:00 -1°C° 0 mm 1 mps 753 mmHg 91%
    17:00 -1°C° 0 mm 1 mps 753 mmHg 91%
    18:00 -1°C° 0 mm 1 mps 754 mmHg 92%
    19:00 -1°C° 0 mm 1 mps 754 mmHg 92%
    20:00 -1°C° 0 mm 1 mps 754 mmHg 92%
    21:00 -3°C° 0 mm 0 mps 755 mmHg 92%
    22:00 -3°C° 0 mm 0 mps 755 mmHg 92%
    23:00 -3°C° 0 mm 0 mps 755 mmHg 92%

    Tomorrow, 18 December, Tuesday

    Time Temperature Precipitation Wind Pressure Humidity
    00:00 -3°C° 0 mm 0 mps 755 mmHg 92%
    01:00 -4°C° 0 mm 0 mps 756 mmHg 93%
    02:00 -3°C° 0 mm 1 mps 756 mmHg 93%
    03:00 -3°C° 0 mm 1 mps 756 mmHg 93%
    04:00 -3°C° 0 mm 1 mps 756 mmHg 93%
    05:00 -3°C° 0 mm 1 mps 756 mmHg 93%
    06:00 -3°C° 0 mm 1 mps 756 mmHg 92%
    07:00 -3°C° 0 mm 1 mps 756 mmHg 92%
    08:00 -3°C° 0 mm 1 mps 757 mmHg 90%
    09:00 -3°C° 0 mm 1 mps 757 mmHg 89%
    10:00 -2°C° 0 mm 1 mps 757 mmHg 87%
    11:00 -2°C° 0 mm 1 mps 757 mmHg 86%
    12:00 -1°C° 0 mm 1 mps 757 mmHg 85%
    13:00 -1°C° 0 mm 1 mps 757 mmHg 83%
    14:00 -1°C° 0 mm 1 mps 757 mmHg 86%
    15:00 -4°C° 0 mm 2 mps 757 mmHg 88%
    16:00 -5°C° 0 mm 2 mps 757 mmHg 90%
    17:00 -5°C° 0 mm 2 mps 757 mmHg 90%
    18:00 -5°C° 0 mm 2 mps 757 mmHg 90%
    19:00 -5°C° 0 mm 2 mps 757 mmHg 91%
    20:00 -5°C° 0 mm 2 mps 757 mmHg 91%
    21:00 -5°C° 0 mm 2 mps 757 mmHg 91%
    22:00 -5°C° 0 mm 2 mps 757 mmHg 91%
    23:00 -5°C° 0 mm 2 mps 757 mmHg 91%

    Day after tomorrow, 19 December, Wednesday

    Time Temperature Precipitation Wind Pressure Humidity
    00:00 -6°C° 0 mm 3 mps 757 mmHg 91%
    01:00 -6°C° 0 mm 3 mps 757 mmHg 90%
    02:00 -6°C° 0 mm 3 mps 757 mmHg 91%
    03:00 -6°C° 0 mm 3 mps 757 mmHg 91%
    04:00 -6°C° 0 mm 3 mps 757 mmHg 91%
    05:00 -7°C° 0 mm 3 mps 757 mmHg 92%
    06:00 -7°C° 0 mm 3 mps 757 mmHg 92%
    07:00 -7°C° 0 mm 3 mps 757 mmHg 92%
    08:00 -6°C° 0 mm 3 mps 757 mmHg 91%
    09:00 -7°C° 0 mm 4 mps 757 mmHg 89%
    10:00 -7°C° 0 mm 4 mps 757 mmHg 88%
    11:00 -5°C° 0 mm 4 mps 757 mmHg 87%
    12:00 -5°C° 0 mm 4 mps 757 mmHg 86%
    13:00 -5°C° 0 mm 4 mps 757 mmHg 85%
    14:00 -5°C° 0 mm 4 mps 756 mmHg 86%
    15:00 -5°C° 0 mm 4 mps 756 mmHg 87%
    16:00 -7°C° 0 mm 4 mps 756 mmHg 89%
    17:00 -7°C° 0 mm 5 mps 756 mmHg 88%
    18:00 -7°C° 0 mm 5 mps 756 mmHg 87%
    19:00 -7°C° 0 mm 5 mps 756 mmHg 87%
    20:00 -7°C° 0 mm 5 mps 756 mmHg 87%
    21:00 -7°C° 0 mm 5 mps 755 mmHg 87%
    22:00 -7°C° 0 mm 5 mps 755 mmHg 87%
    23:00 -7°C° 0 mm 5 mps 755 mmHg 87%

    20 December, Thursday

    Time Temperature Precipitation Wind Pressure Humidity
    00:00 -7°C° 0 mm 5 mps 755 mmHg 88%
    01:00 -7°C° 0 mm 5 mps 755 mmHg 88%
    02:00 -7°C° 0 mm 5 mps 755 mmHg 88%
    03:00 -8°C° 0 mm 5 mps 754 mmHg 88%
    04:00 -8°C° 0 mm 5 mps 754 mmHg 88%
    05:00 -8°C° 0 mm 5 mps 754 mmHg 88%
    06:00 -8°C° 0 mm 5 mps 754 mmHg 88%
    07:00 -8°C° 0 mm 5 mps 754 mmHg 88%
    08:00 -8°C° 0 mm 5 mps 754 mmHg 87%
    09:00 -8°C° 0 mm 5 mps 754 mmHg 86%
    10:00 -8°C° 0 mm 5 mps 754 mmHg 85%
    11:00 -8°C° 0 mm 5 mps 754 mmHg 84%
    12:00 -8°C° 0 mm 5 mps 754 mmHg 82%
    13:00 -8°C° 0 mm 5 mps 753 mmHg 81%
    14:00 -8°C° 0 mm 5 mps 753 mmHg 82%
    15:00 -8°C° 0 mm 4 mps 753 mmHg 82%
    16:00 -9°C° 0 mm 4 mps 753 mmHg 83%
    17:00 -9°C° 0 mm 4 mps 753 mmHg 83%
    18:00 -10°C° 0 mm 5 mps 753 mmHg 84%
    19:00 -10°C° 0 mm 5 mps 753 mmHg 84%
    20:00 -9°C° 0 mm 4 mps 753 mmHg 85%
    21:00 -9°C° 0 mm 4 mps 753 mmHg 85%
    22:00 -9°C° 0 mm 4 mps 753 mmHg 86%
    23:00 -9°C° 0 mm 4 mps 753 mmHg 86%

    21 December, Friday

    Time Temperature Precipitation Wind Pressure Humidity
    00:00 -9°C° 0 mm 4 mps 753 mmHg 87%
    01:00 -9°C° 0 mm 4 mps 752 mmHg 87%
    02:00 -9°C° 0.1 mm 4 mps 752 mmHg 88%
    03:00 -8°C° 0.1 mm 4 mps 752 mmHg 88%
    04:00 -8°C° 0.1 mm 4 mps 752 mmHg 89%
    05:00 -7°C° 0.1 mm 3 mps 752 mmHg 89%
    06:00 -7°C° 0.1 mm 3 mps 752 mmHg 89%
    07:00 -7°C° 0.1 mm 3 mps 752 mmHg 90%
    08:00 -7°C° 0.1 mm 3 mps 752 mmHg 89%
    09:00 -7°C° 0.1 mm 3 mps 752 mmHg 89%
    10:00 -6°C° 0.1 mm 3 mps 752 mmHg 89%
    11:00 -6°C° 0.1 mm 3 mps 752 mmHg 88%
    12:00 -6°C° 0.1 mm 3 mps 751 mmHg 88%
    13:00 -5°C° 0.1 mm 3 mps 751 mmHg 87%
    14:00 -5°C° 0.1 mm 3 mps 751 mmHg 88%
    15:00 -5°C° 0.1 mm 3 mps 751 mmHg 89%
    16:00 -5°C° 0.1 mm 3 mps 751 mmHg 90%
    17:00 -5°C° 0.1 mm 3 mps 751 mmHg 90%
    18:00 -5°C° 0.1 mm 3 mps 751 mmHg 91%
    19:00 -5°C° 0.1 mm 3 mps 751 mmHg 91%
    20:00 -5°C° 0 mm 3 mps 751 mmHg 91%
    21:00 -5°C° 0 mm 3 mps 751 mmHg 92%
    22:00 -5°C° 0 mm 3 mps 751 mmHg 92%
    23:00 -5°C° 0.1 mm 3 mps 751 mmHg 92%

    22 December, Saturday

    Time Temperature Precipitation Wind Pressure Humidity
    00:00 -5°C° 0.1 mm 3 mps 751 mmHg 92%
    01:00 -5°C° 0.1 mm 3 mps 751 mmHg 92%
    02:00 -5°C° 0 mm 3 mps 751 mmHg 92%
    03:00 -5°C° 0 mm 3 mps 751 mmHg 93%
    04:00 -5°C° 0 mm 3 mps 750 mmHg 93%
    05:00 -5°C° 0 mm 3 mps 751 mmHg 92%
    06:00 -5°C° 0 mm 3 mps 751 mmHg 92%
    07:00 -5°C° 0 mm 3 mps 751 mmHg 92%
    08:00 -4°C° 0 mm 4 mps 751 mmHg 91%
    09:00 -4°C° 0 mm 4 mps 751 mmHg 91%
    10:00 -4°C° 0 mm 4 mps 751 mmHg 90%
    11:00 -4°C° 0 mm 4 mps 751 mmHg 90%
    12:00 -4°C° 0 mm 4 mps 752 mmHg 90%
    13:00 -4°C° 0 mm 4 mps 752 mmHg 89%
    14:00 -4°C° 0.1 mm 3 mps 752 mmHg 90%
    15:00 -4°C° 0.1 mm 3 mps 752 mmHg 91%
    16:00 -4°C° 0.1 mm 3 mps 752 mmHg 92%
    17:00 -4°C° 0.1 mm 3 mps 752 mmHg 92%
    18:00 -4°C° 0.1 mm 3 mps 753 mmHg 93%
    19:00 -4°C° 0.1 mm 3 mps 753 mmHg 93%
    20:00 -4°C° 0.1 mm 3 mps 753 mmHg 93%
    21:00 -2°C° 0.1 mm 3 mps 754 mmHg 94%
    22:00 -2°C° 0.1 mm 3 mps 754 mmHg 94%
    23:00 -2°C° 0.1 mm 2 mps 754 mmHg 95%
    Show more